EHI
0 0 0 0 0 0 0 0 0 0 1 2 3 4 3 3 4 6 7 6 3 2 2 3 3 2 1 1 2 3 4 6 6 6 6 6 5 4 2 1 0 0 0 0
0 0 0 0 0 0 0 0 0 0 0 1 3 4 5 5 4 5 5 4 3 1 1 2 2 1 0 0 1 2 4 6 7 6 6 6 6 4 3 1 0 0 0 0
0 0 0 0 0 0 0 0 0 1 1 2 4 6 7 7 5 3 2 2 1 1 0 1 1 0 0 0 0 1 4 7 9 8 6 5 6 6 4 3 1 1 0 0
0 0 0 0 0 0 0 0 0 2 4 5 6 6 9 9 6 3 2 2 1 1 1 1 0 0 1 1 1 1 4 7 8 8 6 5 5 5 5 5 4 2 1 1
0 0 0 0 0 0 0 0 0 2 5 6 5 5 7 7 5 4 4 3 2 2 2 2 1 1 3 3 2 2 4 6 7 7 7 6 5 4 4 5 5 4 2 2
0 0 0 0 0 0 0 0 0 1 3 3 3 3 4 4 4 4 4 3 3 3 3 2 1 1 4 5 3 2 3 5 6 7 6 6 5 4 4 4 4 3 2 1
0 0 0 0 0 0 0 0 0 0 1 2 3 2 2 2 3 2 2 2 2 2 2 1 1 2 4 5 4 4 4 6 7 7 6 6 6 5 4 3 2 1 1 0
0 0 0 0 0 0 0 0 0 1 2 3 3 1 1 1 1 1 1 1 1 1 0 1 2 4 5 6 6 5 6 6 7 7 6 6 6 6 4 1 0 0 0 0
0 0 0 0 0 0 0 0 1 2 2 2 2 1 0 0 0 0 0 0 0 0 0 1 3 4 5 5 5 4 4 5 5 6 6 6 5 4 2 0 0 0 0 0
0 0 0 0 0 0 0 1 2 2 1 1 1 1 1 0 0 0 0 0 0 0 1 2 3 3 3 3 3 2 1 2 3 3 3 3 3 2 0 0 0 0 0 0
0 0 1 0 0 0 0 1 1 1 0 0 0 1 1 1 1 0 0 0 0 1 2 3 3 2 1 1 1 0 0 0 1 1 1 1 1 0 0 0 0 0 0 0
0 0 0 0 0 0 0 0 0 0 0 0 0 0 1 2 2 1 1 1 1 2 3 3 2 1 0 0 0 0 0 0 0 0 0 0 0 0 0 0 0 0 0 0
0 0 0 0 0 0 0 0 0 0 0 0 0 0 1 2 2 2 2 2 2 2 2 1 1 0 0 0 0 0 0 0 0 0 0 0 0 0 0 0 0 0 0 0
0 0 0 0 0 0 0 0 0 0 0 0 0 0 0 1 1 1 1 1 1 1 1 0 0 0 0 0 0 0 0 0 0 0 0 0 0 0 0 0 0 0 0 0
0 0 0 0 0 0 0 0 0 0 0 0 0 0 0 0 0 0 0 0 0 0 0 0 0 0 0 0 0 0 0 0 0 0 0 0 0 0 0 0 0 0 0 0
0 0 0 0 0 0 0 0 0 0 0 0 0 0 0 0 0 0 0 0 0 0 0 0 0 0 0 0 0 0 0 0 0 0 0 0 0 0 0 0 0 0 0 0
0 0 0 0 0 0 0 0 0 0 0 0 0 0 0 0 0 0 0 0 0 0 0 0 0 0 0 0 0 0 0 0 0 0 0 0 0 0 0 0 0 0 0 0
0 0 0 0 0 0 0 0 0 0 0 0 0 0 0 0 0 0 0 0 0 0 0 0 0 0 0 0 0 0 0 0 0 0 0 0 0 0 0 0 0 0 0 0
0 0 0 0 0 0 0 0 0 0 0 0 0 0 0 0 0 0 0 0 0 0 0 0 0 0 0 0 0 0 0 0 0 0 0 0 0 0 0 0 0 0 0 0
0 0 0 0 0 0 0 0 0 0 0 0 0 0 0 0 0 0 0 0 0 0 0 0 0 0 0 0 0 0 0 0 0 0 0 0 0 0 0 0 0 0 0 0
0 0 0 0 0 0 0 0 0 0 0 0 0 0 0 0 0 0 0 0 0 0 0 0 0 0 0 0 0 0 0 0 0 0 0 0 0 0 0 0 0 0 0 0
0 0 0 0 0 0 0 0 0 0 0 0 0 0 0 0 0 0 0 0 0 0 0 0 0 0 0 0 0 0 0 0 0 0 0 0 0 0 0 0 0 0 0 0
0 0 0 0 0 0 0 0 0 0 0 0 0 0 0 0 0 0 0 0 0 0 0 0 0 0 0 0 0 0 0 0 0 0 0 0 0 0 0 0 0 0 0 0
0 0 0 0 0 0 0 0 0 0 0 0 0 0 0 0 0 0 0 0 0 0 0 0 0 0 0 0 0 0 0 0 0 0 0 0 0 0 0 0 0 0 0 0
0 0 0 0 0 0 0 0 0 0 0 0 0 0 0 0 0 0 0 0 0 0 0 0 0 0 0 0 0 0 0 0 0 0 0 0 0 0 0 0 0 0 0 0
0 0 0 0 0 0 0 0 0 0 0 0 0 0 0 0 0 0 0 0 0 0 0 0 0 0 0 0 0 0 0 0 0 0 0 0 0 0 0 0 0 0 0 0
0 0 0 0 0 0 0 0 0 0 0 0 0 0 0 0 0 0 0 0 0 0 0 0 0 0 0 0 0 0 0 0 0 0 0 0 0 0 0 0 0 0 0 0
Wind_Speed
2 3 4 3 4 5 4 7 8 7 6 5 3 2 1 2 4 5 5 5 5 5 4 4 4 4 5 5 5 6 7 7 7 6 6 5 5 5 5 5 6 5 5 4
2 2 4 3 1 3 3 3 3 3 3 2 1 2 2 2 3 4 4 4 3 3 4 4 4 4 4 5 5 6 6 6 6 6 6 6 5 5 5 5 4 5 5 5
2 0 4 1 2 3 3 1 4 5 4 1 2 2 1 1 1 2 2 3 3 2 2 3 4 4 5 5 5 6 6 5 5 6 5 5 5 5 5 5 5 5 4 4
3 3 4 5 1 4 6 2 1 2 2 2 2 2 2 2 2 2 2 3 3 3 2 2 2 3 3 4 5 6 5 5 5 5 5 4 5 6 5 4 4 4 4 3
4 4 1 2 1 3 5 1 0 3 4 3 3 3 3 3 3 3 2 1 1 1 2 1 2 3 4 4 4 5 5 4 5 5 5 5 5 5 4 5 4 4 4 4
5 5 6 6 2 1 5 0 2 3 4 3 3 2 1 1 3 3 3 2 2 1 2 2 1 3 4 4 4 5 4 4 4 5 6 5 5 5 4 5 5 5 5 5
5 3 5 3 2 2 5 6 4 4 4 3 2 3 2 2 3 4 4 3 3 3 3 2 2 3 4 4 3 3 4 4 5 5 6 6 6 6 6 6 7 7 7 6
5 4 7 2 2 5 5 1 3 4 3 3 3 4 4 4 4 4 4 4 4 5 5 4 3 4 5 4 3 5 6 6 6 6 5 6 7 7 7 7 8 7 7 7
6 6 2 1 1 1 2 2 2 3 3 5 5 4 4 4 4 4 5 5 4 5 6 6 5 5 5 4 6 8 8 8 7 8 7 7 8 8 6 6 6 6 6 6
2 1 0 1 1 2 2 1 2 3 4 5 6 5 5 4 4 4 5 5 5 6 7 7 7 7 6 6 8 10 10 9 8 9 9 9 8 7 6 5 6 6 6 7
1 1 1 1 1 2 3 4 5 4 4 5 7 6 6 5 4 4 5 5 5 6 7 7 7 8 7 7 9 11 11 10 10 10 10 11 11 9 8 7 5 7 6 6
5 5 4 3 1 2 3 4 5 6 6 6 6 7 7 5 4 5 6 6 6 7 8 8 8 8 7 7 8 11 10 9 8 8 8 9 11 12 18 15 17 15 12 10
3 3 3 3 2 2 3 4 5 6 7 7 6 7 8 7 6 6 7 7 8 7 8 8 9 9 7 7 9 10 10 9 8 8 8 8 8 10 10 12 17 17 15 14
4 5 4 2 2 3 5 6 7 8 7 7 7 8 9 9 8 8 8 8 8 9 9 9 10 9 7 8 10 11 10 11 9 8 8 8 8 8 8 9 8 8 10 14
3 3 5 5 5 6 7 8 9 8 8 8 8 9 10 10 10 9 8 8 10 10 9 9 10 8 6 8 11 10 9 7 8 8 7 8 8 8 8 9 8 7 6 8
5 6 7 7 7 6 7 9 9 8 8 9 9 9 10 11 10 9 8 8 10 9 8 8 8 6 6 8 10 8 8 12 10 8 7 7 7 8 8 8 7 7 6 5
8 7 7 8 7 7 7 8 9 9 9 10 10 11 11 11 11 10 9 9 10 9 8 8 7 6 6 8 8 7 7 9 12 9 7 7 7 7 7 7 7 6 5 5
5 6 7 9 9 9 9 9 10 10 10 10 11 11 11 10 10 9 8 9 10 10 8 6 7 7 7 8 7 7 7 7 7 7 7 7 7 7 7 7 7 7 5 6
7 8 8 9 9 10 10 10 10 10 10 11 11 11 10 9 8 8 8 10 10 8 5 5 8 8 8 8 9 7 8 8 8 7 7 8 8 6 6 6 6 6 5 5
8 9 10 10 10 11 11 11 11 11 10 11 11 11 10 9 8 8 9 8 5 3 3 5 7 7 7 8 9 7 7 8 8 7 6 6 6 6 6 6 6 5 5 4
10 10 11 11 11 11 11 11 11 11 10 10 11 11 9 8 7 7 8 6 4 4 5 7 6 6 6 7 9 7 7 7 7 6 6 6 6 5 5 5 5 5 4 4
9 10 11 11 11 11 9 9 10 11 10 10 10 10 9 9 8 7 6 4 3 5 5 5 5 7 8 8 6 7 7 7 6 5 5 5 5 5 5 4 4 4 3 3
8 9 10 11 11 11 10 9 9 9 10 9 9 8 8 6 5 6 5 2 3 6 5 4 7 10 10 7 6 6 6 6 5 5 5 5 5 5 4 4 4 3 3 3
9 10 10 10 11 11 10 8 8 8 9 8 7 7 8 6 5 4 4 5 7 8 6 6 10 10 9 5 5 5 5 5 5 5 5 4 4 4 4 4 3 3 3 3
10 10 11 11 10 8 8 9 10 9 9 7 7 7 5 4 5 4 4 6 8 8 6 7 9 9 6 5 5 5 4 4 4 4 4 4 4 4 3 3 3 3 2 2
8 8 7 7 7 7 6 7 7 6 7 7 5 5 5 5 6 5 5 6 7 7 5 4 4 5 5 5 5 4 4 4 4 4 4 4 4 4 3 3 3 3 2 2
9 8 7 7 6 6 6 6 7 6 6 7 6 4 5 5 5 5 5 5 4 4 4 3 3 4 4 4 4 3 3 3 3 3 3 3 3 3 3 4 3 2 2 2
Wind_Direction
179 184 150 151 157 157 153 167 170 209 210 249 257 242 240 170 145 139 146 157 166 167 167 161 161 171 172 173 170 167 167 176 187 185 182 182 185 184 179 178 182 177 176 177
54 69 123 104 101 136 129 140 156 146 224 269 310 88 71 86 139 150 155 155 161 168 169 171 178 183 177 174 171 164 172 182 181 178 180 183 181 174 168 172 173 168 171 170
148 163 85 118 220 164 136 123 153 179 217 178 83 91 111 103 120 136 146 144 150 173 203 192 188 184 183 181 164 163 174 176 173 173 177 180 172 162 167 172 164 163 167 164
121 113 174 238 277 137 115 80 86 139 145 144 129 110 67 62 83 74 94 115 128 156 188 197 180 173 168 159 159 163 169 173 169 166 170 164 159 164 167 159 156 154 150 152
114 134 175 266 193 154 132 102 344 143 132 113 110 77 39 40 59 70 74 85 107 145 148 152 166 165 152 150 151 152 161 166 163 160 158 154 157 158 152 139 130 123 114 119
119 139 204 226 227 165 106 180 237 157 157 150 111 104 259 39 60 53 54 63 70 75 87 97 121 140 144 153 154 165 168 159 153 149 148 151 150 134 119 117 115 108 93 85
135 168 243 248 274 128 161 218 187 169 171 162 160 181 153 86 62 59 55 49 56 70 72 67 84 126 133 138 151 147 128 123 125 129 132 128 118 110 110 109 104 99 91 74
139 164 234 282 137 172 199 168 152 161 164 141 127 119 111 91 77 68 60 53 54 63 56 41 61 110 114 113 113 109 110 110 110 110 112 111 110 105 106 109 104 99 94 80
175 195 228 313 202 227 146 139 157 154 149 137 133 127 113 94 77 68 63 55 55 66 60 47 47 82 101 101 106 103 99 98 98 94 89 97 103 105 103 101 102 101 98 91
134 202 335 5 36 39 53 110 117 133 138 136 134 129 113 100 84 69 63 58 61 67 64 55 53 67 80 92 99 100 99 96 95 95 88 80 79 82 89 93 99 99 98 94
127 166 73 356 41 62 67 80 89 95 109 119 121 116 111 105 94 84 78 69 69 74 71 64 62 65 71 83 96 96 95 94 91 89 91 83 74 63 71 61 83 101 99 101
196 194 174 200 198 93 94 92 98 102 96 98 108 114 109 102 94 89 82 77 77 77 78 73 71 69 68 76 94 100 97 93 92 93 93 95 95 81 61 69 70 73 82 92
167 136 135 135 98 80 104 102 98 102 109 106 100 110 109 103 93 88 82 80 81 80 81 80 77 71 68 79 87 93 97 97 95 97 97 97 99 101 94 70 63 63 69 80
119 115 114 122 112 97 104 102 97 94 96 102 104 106 105 101 95 89 85 83 84 81 78 78 77 71 69 85 89 91 94 96 98 95 96 96 95 96 98 100 90 70 59 69
80 109 135 123 111 106 106 108 106 103 103 100 103 105 105 103 98 92 87 87 85 80 76 78 77 71 72 87 91 93 96 97 96 96 96 97 96 95 95 96 96 92 82 67
108 106 119 121 124 124 121 120 117 115 113 108 104 100 98 98 95 87 81 83 86 83 79 80 77 73 82 93 94 92 94 103 103 102 101 100 99 101 101 99 97 93 88 84
137 143 140 137 135 131 127 125 122 120 115 110 106 103 100 97 91 84 78 77 81 76 73 79 80 77 82 91 97 100 100 102 102 100 100 102 103 103 103 103 100 95 85 77
139 142 144 142 138 133 125 119 117 116 113 111 108 105 103 101 99 94 90 86 80 68 56 61 77 80 79 85 93 96 98 97 97 99 98 96 98 100 103 103 104 100 92 83
119 122 123 125 129 127 123 119 114 110 110 112 109 104 99 97 96 95 90 84 81 75 49 57 85 86 86 93 100 99 103 103 99 96 98 101 99 100 103 105 104 103 102 96
111 114 116 117 118 121 120 117 114 111 112 113 110 106 101 97 96 94 86 77 67 75 84 89 89 87 89 96 100 100 104 106 107 105 103 105 107 106 105 108 108 106 103 101
116 116 115 115 114 115 117 118 117 115 114 114 114 112 108 102 97 95 94 84 48 63 84 88 87 89 89 97 97 101 104 107 109 112 113 113 112 110 108 108 109 109 109 106
119 119 118 117 115 113 111 111 114 114 113 112 111 112 110 105 98 86 75 87 86 91 89 85 89 97 100 98 97 101 103 106 108 111 113 115 117 116 115 116 117 118 117 116
116 116 116 116 115 112 108 108 112 115 115 117 119 119 114 109 108 111 101 80 90 97 94 93 103 102 99 95 99 102 105 108 111 115 118 120 124 127 129 129 128 128 129 125
111 111 111 112 111 111 111 109 106 104 105 104 107 113 114 106 83 72 99 106 104 101 93 100 103 101 97 95 99 102 106 111 115 118 118 118 119 124 129 133 135 138 140 141
108 110 113 116 114 113 114 112 106 102 100 96 92 89 91 101 111 109 102 103 103 98 92 94 99 98 96 100 103 106 110 117 124 126 126 127 130 135 140 144 149 153 157 165
104 105 107 109 114 117 118 115 110 109 110 105 94 90 91 92 98 97 94 96 99 101 100 98 100 99 100 102 104 108 111 118 122 128 136 138 141 145 150 158 166 174 180 188
96 99 101 98 97 106 113 115 117 118 121 122 115 106 105 105 103 103 104 103 104 104 102 100 102 105 108 111 110 110 115 124 131 137 143 148 155 166 176 181 187 190 194 200